Zurück zum Katalog

CZ-3C DEB

AktivGTO
NORAD 40817·DEBRIS·🇨🇳 China

Gestartet Oct 31, 2010 von Xichang Satellite Launch Center

Loading…

TLE

VeraltetSource: Space-Track

Epoche: Sep 12, 2026, 18:12 UTC

1 40817U 10057AJ  26255.75840877  .00000258  00000-0  64819-2 0  9994
2 40817  19.1890 127.4333 7170982 131.8948 316.2952  2.20038958 51226

Verfolge CZ-3C DEB in Echtzeit mit AllMySat

Download on the App Store